TimeEDT,TemperatureF,Dew PointF,Humidity,Sea Level PressureIn,VisibilityMPH,Wind Direction,Wind SpeedMPH,Gust SpeedMPH,PrecipitationIn,Events,Conditions,WindDirDegrees,DateUTC
12:54 AM,39.0,26.1,60,30.40,10.0,Calm,Calm,-,N/A,,Clear,0,2013-04-27 04:54:00
1:54 AM,39.9,27.0,60,30.39,10.0,WSW,5.8,-,N/A,,Clear,240,2013-04-27 05:54:00
2:54 AM,34.0,27.0,75,30.38,10.0,Calm,Calm,-,N/A,,Clear,0,2013-04-27 06:54:00
3:54 AM,33.1,27.0,78,30.38,10.0,Calm,Calm,-,N/A,,Clear,0,2013-04-27 07:54:00
4:54 AM,32.0,27.0,82,30.38,10.0,Calm,Calm,-,N/A,,Clear,0,2013-04-27 08:54:00
5:54 AM,30.0,27.0,88,30.39,7.0,Calm,Calm,-,N/A,,Clear,0,2013-04-27 09:54:00
6:54 AM,33.1,28.9,85,30.40,7.0,Calm,Calm,-,N/A,,Clear,0,2013-04-27 10:54:00
7:54 AM,39.0,30.0,70,30.40,10.0,Calm,Calm,-,N/A,,Clear,0,2013-04-27 11:54:00
8:54 AM,45.0,30.0,56,30.39,10.0,Calm,Calm,-,N/A,,Clear,0,2013-04-27 12:54:00
9:54 AM,50.0,30.9,48,30.38,10.0,SW,4.6,-,N/A,,Clear,230,2013-04-27 13:54:00
10:54 AM,53.1,28.9,40,30.38,10.0,Calm,Calm,-,N/A,,Clear,0,2013-04-27 14:54:00
11:54 AM,55.9,30.0,37,30.37,10.0,Variable,6.9,-,N/A,,Clear,0,2013-04-27 15:54:00
12:54 PM,57.9,28.9,33,30.33,10.0,NW,8.1,-,N/A,,Clear,310,2013-04-27 16:54:00
1:54 PM,57.9,26.1,30,30.31,10.0,Variable,3.5,-,N/A,,Clear,0,2013-04-27 17:54:00
2:54 PM,62.1,25.0,24,30.29,10.0,Variable,5.8,-,N/A,,Partly Cloudy,0,2013-04-27 18:54:00
3:54 PM,61.0,21.9,22,30.27,10.0,West,6.9,-,N/A,,Clear,260,2013-04-27 19:54:00
4:54 PM,63.0,26.1,25,30.27,10.0,West,12.7,-,N/A,,Partly Cloudy,280,2013-04-27 20:54:00
5:54 PM,59.0,28.0,31,30.27,10.0,NW,5.8,-,N/A,,Overcast,310,2013-04-27 21:54:00
6:54 PM,57.9,28.0,32,30.27,10.0,NW,8.1,-,N/A,,Overcast,320,2013-04-27 22:54:00
7:54 PM,57.0,28.0,33,30.26,10.0,Calm,Calm,-,N/A,,Overcast,0,2013-04-27 23:54:00
8:54 PM,55.0,30.0,38,30.25,10.0,Calm,Calm,-,N/A,,Overcast,0,2013-04-28 00:54:00
9:54 PM,52.0,32.0,47,30.26,10.0,Calm,Calm,-,N/A,,Overcast,0,2013-04-28 01:54:00
10:54 PM,48.9,36.0,61,30.27,10.0,Calm,Calm,-,N/A,,Scattered Clouds,0,2013-04-28 02:54:00
11:54 PM,46.0,32.0,58,30.27,10.0,Calm,Calm,-,N/A,,Clear,0,2013-04-28 03:54:00